KN4MGS Weather Reports


time (UTC)temp
C
wind
direction
speed
KPH
gust
KPH
rain 1hr
cm
rain 24hr
cm
rain mn
cm
humidity
%
barometer
mb
20260505001807 18 167 0.0 0.0 0.00 0.00 0.00 62 1017.6
20260505001303 18 148 0.0 0.0 0.00 0.00 0.00 62 1017.7
20260505000800 18 169 0.0 0.0 0.00 0.00 0.00 60 1017.6
20260505000258 18 162 0.0 0.0 0.00 0.00 0.00 58 1017.4
20260504235754 19 178 0.0 0.0 0.00 0.00 0.00 58 1017.4
20260504235251 20 165 0.0 0.0 0.00 0.00 0.00 59 1017.6
20260504234748 20 160 0.0 0.0 0.00 0.00 0.00 56 1017.3
20260504234245 20 166 0.0 0.0 0.00 0.00 0.00 55 1017.3
20260504233741 21 176 0.0 0.0 0.00 0.00 0.00 54 1017.2
20260504233237 21 168 0.0 0.0 0.00 0.00 0.00 54 1017.0
20260504232735 22 165 0.0 1.6 0.00 0.00 0.00 51 1017.3
20260504232232 22 162 0.0 0.0 0.00 0.00 0.00 52 1017.3
20260504231729 22 175 0.0 0.0 0.00 0.00 0.00 52 1017.2
20260504231225 22 196 0.0 3.2 0.00 0.00 0.00 48 1017.1
20260504230721 23 186 1.6 1.6 0.00 0.00 0.00 43 1017.1
20260504230220 23 241 3.2 3.2 0.00 0.00 0.00 42 1017.0
20260504225718 23 210 0.0 1.6 0.00 0.00 0.00 40 1017.0
20260504225214 23 175 1.6 3.2 0.00 0.00 0.00 39 1016.9
20260504224711 23 212 3.2 9.7 0.00 0.00 0.00 37 1017.1
20260504224209 23 184 1.6 4.8 0.00 0.00 0.00 38 1017.2
20260504223705 24 205 3.2 3.2 0.00 0.00 0.00 37 1017.2
20260504223200 25 212 3.2 4.8 0.00 0.00 0.00 36 1017.1
20260504222658 25 205 3.2 3.2 0.00 0.00 0.00 35 1017.2
20260504222154 25 276 4.8 4.8 0.00 0.00 0.00 35 1017.1
20260504221652 25 206 6.4 9.7 0.00 0.00 0.00 36 1016.9
20260504221149 25 207 4.8 8.0 0.00 0.00 0.00 36 1017.1
20260504220645 25 228 3.2 4.8 0.00 0.00 0.00 36 1017.0
20260504220143 25 179 0.0 3.2 0.00 0.00 0.00 37 1017.3
20260504215639 25 203 4.8 9.7 0.00 0.00 0.00 35 1017.1
20260504215136 26 189 3.2 3.2 0.00 0.00 0.00 34 1017.1
20260504214632 25 227 4.8 14.5 0.00 0.00 0.00 34 1017.1
20260504214130 26 187 3.2 8.0 0.00 0.00 0.00 33 1017.3
20260504213625 26 38 3.2 12.9 0.00 0.00 0.00 34 1017.2
20260504213122 26 276 8.0 11.3 0.00 0.00 0.00 32 1017.1
20260504212618 26 300 6.4 12.9 0.00 0.00 0.00 31 1017.2
20260504212115 26 299 4.8 9.7 0.00 0.00 0.00 33 1017.1
20260504211613 26 4 1.6 12.9 0.00 0.00 0.00 34 1017.0
20260504211109 27 198 8.0 11.3 0.00 0.00 0.00 32 1017.1
20260504210607 27 297 4.8 9.7 0.00 0.00 0.00 34 1017.3
20260504205601 26 229 4.8 8.0 0.00 0.00 0.00 34 1017.2
20260504205058 26 235 4.8 9.7 0.00 0.00 0.00 32 1017.2
20260504204556 26 288 4.8 9.7 0.00 0.00 0.00 35 1017.5
20260504204055 26 226 4.8 11.3 0.00 0.00 0.00 35 1017.5
20260504203553 26 194 8.0 9.7 0.00 0.00 0.00 34 1017.4
20260504203050 27 204 4.8 4.8 0.00 0.00 0.00 36 1017.6
20260504202545 26 81 3.2 11.3 0.00 0.00 0.00 35 1017.5
20260504202043 26 244 3.2 11.3 0.00 0.00 0.00 33 1017.8
20260504201539 26 196 4.8 9.7 0.00 0.00 0.00 33 1017.7
20260504201038 26 235 4.8 9.7 0.00 0.00 0.00 32 1017.9
20260504200533 26 183 3.2 8.0 0.00 0.00 0.00 33 1017.9
20260504200031 26 199 8.0 9.7 0.00 0.00 0.00 32 1017.9
20260504195526 26 292 8.0 14.5 0.00 0.00 0.00 33 1017.9
20260504195023 26 156 3.2 16.1 0.00 0.00 0.00 36 1018.0
20260504194520 26 237 11.3 12.9 0.00 0.00 0.00 34 1017.9
20260504194015 26 184 3.2 12.9 0.00 0.00 0.00 36 1018.1
20260504193512 27 178 1.6 3.2 0.00 0.00 0.00 33 1017.9
20260504193011 26 176 0.0 3.2 0.00 0.00 0.00 34 1018.1
20260504192509 26 150 0.0 9.7 0.00 0.00 0.00 35 1018.3
20260504192007 26 87 0.0 3.2 0.00 0.00 0.00 32 1018.3
20260504191504 26 335 3.2 8.0 0.00 0.00 0.00 33 1018.5
20260504191000 27 239 4.8 4.8 0.00 0.00 0.00 34 1018.5
20260504190456 26 189 1.6 9.7 0.00 0.00 0.00 34 1018.7
20260504185952 26 213 1.6 11.3 0.00 0.00 0.00 34 1018.5
20260504185449 25 235 8.0 11.3 0.00 0.00 0.00 36 1018.6
20260504184945 25 189 1.6 9.7 0.00 0.00 0.00 36 1018.9
20260504184441 26 214 9.7 12.9 0.00 0.00 0.00 35 1018.7
20260504183937 25 203 1.6 8.0 0.00 0.00 0.00 36 1018.8
20260504183434 26 326 6.4 14.5 0.00 0.00 0.00 35 1018.5
20260504182933 25 225 4.8 8.0 0.00 0.00 0.00 37 1019.0
20260504182429 25 185 4.8 11.3 0.00 0.00 0.00 36 1019.0
20260504181927 26 236 3.2 11.3 0.00 0.00 0.00 37 1019.0
20260504181423 25 139 1.6 8.0 0.00 0.00 0.00 39 1019.1
20260504180922 25 233 3.2 9.7 0.00 0.00 0.00 40 1019.2
20260504180421 26 181 1.6 3.2 0.00 0.00 0.00 36 1019.1
20260504175918 25 265 4.8 4.8 0.00 0.00 0.00 38 1019.0
20260504175415 25 213 6.4 11.3 0.00 0.00 0.00 36 1019.3
20260504174913 25 209 3.2 8.0 0.00 0.00 0.00 38 1019.3
20260504174410 25 327 1.6 8.0 0.00 0.00 0.00 37 1019.5
20260504173908 25 72 3.2 8.0 0.00 0.00 0.00 38 1019.5
20260504173404 25 322 3.2 8.0 0.00 0.00 0.00 35 1019.4
20260504172901 25 130 1.6 3.2 0.00 0.00 0.00 37 1019.6
20260504172357 25 223 1.6 4.8 0.00 0.00 0.00 38 1019.9
20260504171854 23 318 6.4 9.7 0.00 0.00 0.00 37 1019.7
20260504171351 25 253 4.8 8.0 0.00 0.00 0.00 40 1019.9
20260504170848 24 129 0.0 4.8 0.00 0.00 0.00 39 1019.6
20260504170344 25 232 4.8 8.0 0.00 0.00 0.00 40 1019.6
20260504160303 22 323 4.8 8.0 0.00 0.00 0.00 44 1021.5
20260504150728 22 162 3.2 4.8 0.00 0.00 0.00 43 1021.6
20260504150225 22 158 0.0 3.2 0.00 0.00 0.00 46 1021.4
20260504141154 18 162 1.6 4.8 0.00 0.00 0.00 60 1021.6
20260504140651 18 120 0.0 3.2 0.00 0.00 0.00 58 1021.6
20260504140147 18 188 1.6 3.2 0.00 0.00 0.00 61 1021.6
20260504130615 15 143 0.0 1.6 0.00 0.00 0.00 73 1021.7
20260504130112 15 160 0.0 1.6 0.00 0.00 0.00 75 1021.9
20260504110503 3 159 0.0 0.0 0.00 0.00 0.00 99 1021.5
20260504100425 3 158 0.0 0.0 0.00 0.00 0.00 99 1020.9
20260504081818 5 157 0.0 0.0 0.00 0.00 0.00 99 1020.7
20260504081315 4 157 0.0 0.0 0.00 0.00 0.00 99 1020.6
20260504080810 5 150 0.0 0.0 0.00 0.00 0.00 99 1020.4
20260504080308 5 155 0.0 0.0 0.00 0.00 0.00 99 1020.4
20260504070235 6 158 0.0 0.0 0.00 0.00 0.00 99 1020.8
20260504060156 6 157 0.0 0.0 0.00 0.00 0.00 98 1020.7
20260504050624 7 159 0.0 0.0 0.00 0.00 0.00 95 1020.4
20260504050121 7 158 0.0 0.0 0.00 0.00 0.00 95 1020.9
20260504045618 7 159 0.0 0.0 0.00 0.00 0.00 94 1020.7
20260504045112 7 159 0.0 0.0 0.00 0.00 0.00 94 1020.8
20260504044611 7 159 0.0 0.0 0.00 0.00 0.00 94 1020.7
20260504044107 7 159 0.0 0.0 0.00 0.00 0.00 94 1020.8
20260504043604 7 159 0.0 0.0 0.00 0.00 0.00 93 1020.9
20260504043101 7 158 0.0 0.0 0.00 0.00 0.00 93 1020.5
20260504042558 7 160 0.0 0.0 0.00 0.00 0.00 92 1020.9
20260504042055 7 160 0.0 0.0 0.00 0.00 0.00 92 1020.8
20260504041551 8 158 0.0 0.0 0.00 0.00 0.00 92 1020.9
20260504041047 8 165 0.0 0.0 0.00 0.00 0.00 92 1021.2
20260504040545 8 165 0.0 0.0 0.00 0.00 0.00 91 1020.9
20260504040041 8 165 0.0 0.0 0.00 0.00 0.00 91 1020.9
20260504035538 8 165 0.0 0.0 0.00 0.00 0.00 90 1021.0
20260504035035 8 165 0.0 0.0 0.00 0.00 0.00 90 1021.1
20260504034533 8 165 0.0 0.0 0.00 0.00 0.00 90 1020.8
20260504034029 8 166 0.0 0.0 0.00 0.00 0.00 90 1021.1
20260504033528 8 166 0.0 0.0 0.00 0.00 0.00 89 1021.1
20260504033025 8 166 0.0 0.0 0.00 0.00 0.00 88 1021.1
20260504032521 9 166 0.0 0.0 0.00 0.00 0.00 88 1020.9
20260504032018 9 166 0.0 0.0 0.00 0.00 0.00 88 1021.0
20260504031515 8 166 0.0 0.0 0.00 0.00 0.00 88 1021.0
20260504031011 9 166 0.0 0.0 0.00 0.00 0.00 88 1020.9
20260504030509 9 167 0.0 0.0 0.00 0.00 0.00 87 1020.9
20260504030005 9 167 0.0 0.0 0.00 0.00 0.00 87 1020.8
20260504025501 9 167 0.0 0.0 0.00 0.00 0.00 86 1020.8
20260504024958 10 166 0.0 0.0 0.00 0.00 0.00 86 1020.9
20260504024455 10 167 0.0 0.0 0.00 0.00 0.00 86 1021.0
20260504023953 10 167 0.0 0.0 0.00 0.00 0.00 85 1021.1
20260504023449 10 167 0.0 0.0 0.00 0.00 0.00 84 1020.9
20260504022944 10 166 0.0 0.0 0.00 0.00 0.00 84 1020.9
20260504022441 10 167 0.0 0.0 0.00 0.00 0.00 83 1020.7
20260504021938 10 167 0.0 0.0 0.00 0.00 0.00 83 1020.8
20260504021435 10 167 0.0 0.0 0.00 0.00 0.00 82 1020.4
20260504020932 10 167 0.0 0.0 0.00 0.00 0.00 81 1020.4
20260504020429 10 167 0.0 0.0 0.00 0.00 0.00 81 1020.2
20260504015925 11 167 0.0 0.0 0.00 0.00 0.00 80 1020.3
20260504015421 10 167 0.0 0.0 0.00 0.00 0.00 80 1020.4
20260504014917 11 167 0.0 0.0 0.00 0.00 0.00 80 1020.3
20260504014414 11 167 0.0 0.0 0.00 0.00 0.00 80 1020.0
20260504013911 11 167 0.0 0.0 0.00 0.00 0.00 79 1019.7
20260504013409 11 167 0.0 0.0 0.00 0.00 0.00 78 1020.0
20260504012905 11 167 0.0 0.0 0.00 0.00 0.00 78 1019.9
20260504012403 11 167 0.0 0.0 0.00 0.00 0.00 77 1020.0
20260504011900 11 167 0.0 0.0 0.00 0.00 0.00 76 1019.9
20260504011357 12 167 0.0 0.0 0.00 0.00 0.00 75 1020.2
20260504010853 12 167 0.0 0.0 0.00 0.00 0.00 74 1019.6
20260504010349 12 167 0.0 1.6 0.00 0.00 0.00 74 1019.9
20260504005845 12 167 0.0 0.0 0.00 0.00 0.00 73 1020.1
20260504005342 12 166 0.0 0.0 0.00 0.00 0.00 72 1019.5
20260504004840 13 164 0.0 0.0 0.00 0.00 0.00 71 1019.5
20260504004337 13 165 0.0 0.0 0.00 0.00 0.00 70 1019.5
20260504003833 13 165 0.0 0.0 0.00 0.00 0.00 69 1019.5
20260504003330 13 159 0.0 0.0 0.00 0.00 0.00 68 1019.5
20260504002827 14 176 0.0 1.6 0.00 0.00 0.00 67 1019.4
20260504002324 15 177 0.0 1.6 0.00 0.00 0.00 65 1019.5